[[{"header":{"parameterUnit":"m.s-1","parameterCategory":1,"la1":30.2991,"la2":30.254,"lo1":-89.0895,"lo2":-89.0444,"dy":0.0017,"dx":0.0017,"nx":28,"ny":28,"refTime":"2025-03-21T09:00:00:Z","depth":0,"parameterNumber":2,"parameterNumberName":"U-component_of_WINDS"},"data":[0,0,0,0,0,0,0,0,0,0,0,0,0,0,0,0,0,0,0,0,0,0,0,0,0,0,0,0,0,0,0,0,0,0,0,0,0,0,0,0,0,0,0,0,0,0,0,0,0,0,0,0,0,0,0,0,0,0,-0.6239,-0.6239,0,-0.6169,-0.6169,-0.6168,-0.6118,-0.6118,-0.6117,-0.6117,-0.6044,-0.6042,-0.6041,0,0,0,0,0,0,0,0,0,0,0,0,0,-0.6331,-0.633,-0.624,-0.6239,-0.6238,-0.6169,-0.6168,-0.6168,-0.6118,-0.6118,-0.6117,-0.6117,-0.6044,-0.6042,-0.604,0,0,0,0,0,0,0,0,0,0,0,0,0,-0.6279,-0.633,-0.624,-0.6205,-0.6201,-0.617,-0.6168,-0.6167,-0.6118,-0.6118,-0.6117,-0.6117,-0.6045,-0.6043,-0.604,-0.6037,0,0,-0.6033,-0.6032,0,0,0,0,0,0,0,0,-0.6282,-0.6276,-0.6211,-0.6207,-0.6203,-0.6152,-0.6174,-0.6124,-0.6119,-0.615,-0.6117,-0.6116,-0.608,-0.6075,-0.6063,-0.6034,-0.603,-0.6033,-0.6031,-0.603,-0.603,0,0,0,0,0,0,0,-0.6286,-0.6279,-0.6212,-0.621,-0.6205,-0.6193,-0.6185,-0.6164,-0.6119,-0.6147,-0.6143,-0.6136,-0.6078,-0.6065,-0.6061,-0.6029,-0.6033,-0.6031,-0.6029,-0.6028,-0.5996,-0.5997,0,0,0,0,0,0,-0.6295,-0.6282,-0.6214,-0.621,-0.6242,-0.6192,-0.6183,-0.6169,-0.6119,-0.6111,-0.6136,-0.6134,-0.607,-0.6064,-0.6058,-0.6052,-0.603,-0.6028,-0.6027,-0.5995,-0.5996,-0.5997,0,0,0,0,0,0,-0.6297,-0.629,-0.6217,-0.6245,-0.6235,-0.6191,-0.6176,-0.6168,-0.6155,-0.6111,-0.6103,-0.6132,-0.6069,-0.6061,-0.6043,-0.6049,-0.6027,-0.6025,-0.5995,-0.5996,-0.5996,-0.6039,0,0,0,0,0,0,-0.63,-0.6291,-0.6289,-0.6245,-0.6233,-0.6203,-0.6176,-0.6167,-0.6151,-0.6147,-0.6105,-0.6097,-0.6068,-0.6047,-0.6041,-0.6045,-0.6023,-0.5994,-0.5995,-0.5996,-0.6037,-0.6041,-0.6045,0,0,0,0,0,-0.6304,-0.6303,-0.6289,-0.6281,-0.623,-0.6203,-0.6197,-0.6164,-0.6152,-0.615,-0.6122,-0.6098,-0.6049,-0.6046,-0.6038,-0.6042,-0.5994,-0.5995,-0.5996,-0.6035,-0.6041,-0.6045,0,0,0,0,0,0,-0.6347,-0.6296,-0.628,-0.6265,-0.6239,-0.6195,-0.6191,-0.617,-0.6146,-0.6143,-0.6103,-0.6094,-0.608,-0.6059,-0.6056,-0.6037,-0.6019,-0.6019,-0.6051,-0.6056,-0.606,-0.6065,-0.6021,0,0,0,0,0,-0.6355,-0.6338,-0.6294,-0.6285,-0.6273,-0.6235,-0.6222,-0.6199,-0.617,-0.6159,-0.6129,-0.6102,-0.6081,-0.6067,-0.6045,-0.6034,-0.6025,-0.6033,-0.6037,-0.6041,-0.6041,-0.6035,-0.6039,-0.6001,-0.6001,-0.6001,0,0,-0.6371,-0.6341,-0.6332,-0.6293,-0.627,-0.6254,-0.6226,-0.6209,-0.6196,-0.6156,-0.6137,-0.6115,-0.6082,-0.6068,-0.6061,-0.605,-0.605,-0.6043,-0.6046,-0.6044,-0.6037,-0.6041,-0.6044,-0.6002,-0.6002,-0.6002,0,0,-0.6391,-0.6367,-0.6357,-0.6335,-0.6302,-0.6276,-0.6274,-0.6234,-0.6218,-0.6199,-0.6169,-0.6154,-0.6117,-0.6096,-0.608,-0.6095,-0.6073,-0.6089,-0.611,-0.6105,-0.6108,-0.611,-0.6116,-0.6118,-0.609,-0.609,-0.609,0,-0.6415,-0.6388,-0.6355,-0.634,-0.6324,-0.6289,-0.6279,-0.626,-0.622,-0.621,-0.62,-0.6155,-0.613,-0.6111,-0.6115,-0.6104,-0.61,-0.6093,-0.611,-0.6112,-0.6114,-0.6119,-0.6121,-0.6092,-0.6092,-0.6091,-0.6091,0,-0.6419,-0.6402,-0.6398,-0.6362,-0.6346,-0.6334,-0.6299,-0.6287,-0.6267,-0.6243,-0.6225,-0.6195,-0.6167,-0.6161,-0.614,-0.614,-0.6134,-0.6118,-0.6098,-0.612,-0.6124,-0.6126,-0.6095,-0.6094,-0.6094,-0.6093,0,0,-0.6462,-0.641,-0.6409,-0.6393,-0.6355,-0.6341,-0.6328,-0.6301,-0.6292,-0.6267,-0.6255,-0.6227,-0.6212,-0.6194,-0.6171,-0.6166,-0.6182,-0.615,-0.6149,-0.6157,-0.618,-0.6193,-0.6196,-0.6167,-0.6168,-0.6168,-0.6183,0,-0.6477,-0.6452,-0.6423,-0.6408,-0.6392,-0.6359,-0.6348,-0.6324,-0.6302,-0.6286,-0.6262,-0.6242,-0.6223,-0.6213,-0.6207,-0.6181,-0.6186,-0.618,-0.6156,-0.6156,-0.6165,-0.6198,-0.6211,-0.6227,-0.6185,-0.6185,-0.6185,0,-0.6489,-0.6467,-0.6451,-0.6416,-0.6408,-0.6398,-0.6373,-0.6357,-0.6329,-0.6314,-0.6296,-0.6272,-0.6257,-0.6241,-0.6221,-0.6218,-0.6207,-0.6193,-0.6193,-0.6189,-0.6171,-0.6195,-0.6231,-0.6233,-0.6187,-0.6187,-0.6187,0,-0.6523,-0.6489,-0.6475,-0.6462,-0.6421,-0.6415,-0.6398,-0.6369,-0.6356,-0.6334,-0.6325,-0.6301,-0.6288,-0.627,-0.6241,-0.6232,-0.6224,-0.6205,-0.6211,-0.6212,-0.621,-0.621,-0.6245,-0.6204,-0.6204,-0.6204,-0.6204,0,-0.6541,-0.6533,-0.649,-0.6481,-0.6471,-0.6439,-0.643,-0.6409,-0.6385,-0.6372,-0.6343,-0.6332,-0.6294,-0.6279,-0.6256,-0.6243,-0.6238,-0.6225,-0.6219,-0.6227,-0.6229,-0.6219,-0.6217,-0.6205,-0.6205,-0.6204,-0.6204,0,-0.6576,-0.6547,-0.653,-0.6493,-0.6484,-0.6478,-0.6446,-0.6437,-0.6415,-0.64,-0.6394,-0.6359,-0.634,-0.6309,-0.628,-0.6265,-0.6257,-0.6247,-0.6266,-0.6262,-0.627,-0.627,-0.6299,-0.6301,-0.626,-0.626,-0.626,0,-0.659,-0.6582,-0.6545,-0.6535,-0.6519,-0.6503,-0.6489,-0.6458,-0.6445,-0.6414,-0.6409,-0.6388,-0.6369,-0.634,-0.6312,-0.629,-0.628,-0.6291,-0.6276,-0.6285,-0.628,-0.6281,-0.628,-0.6295,-0.6295,-0.6296,-0.6296,0,-0.6617,-0.6603,-0.6585,-0.6563,-0.6548,-0.6529,-0.6508,-0.6501,-0.6465,-0.6453,-0.6433,-0.6419,-0.6391,-0.637,-0.6345,-0.6327,-0.6306,-0.6302,-0.6302,-0.631,-0.6322,-0.6316,-0.6276,-0.6301,-0.63,-0.63,-0.63,-0.6299,-0.6641,-0.6634,-0.6607,-0.6589,-0.657,-0.6552,-0.6542,-0.652,-0.6503,-0.6478,-0.646,-0.6442,-0.6417,-0.6381,-0.6365,-0.635,-0.6341,-0.6341,-0.6341,-0.6341,-0.6345,-0.6325,-0.6346,-0.6345,-0.6345,-0.6345,-0.6345,0,-0.6667,-0.6649,-0.6632,-0.6605,-0.6591,-0.6573,-0.655,-0.6539,-0.6524,-0.6502,-0.6485,-0.6463,-0.6444,-0.6415,-0.6394,-0.6388,-0.6378,-0.6383,-0.6383,-0.638,-0.6354,-0.6356,-0.6392,-0.6392,-0.6392,-0.6392,-0.6392,-0.6392,-0.6678,-0.6666,-0.665,-0.6628,-0.661,-0.6592,-0.6581,-0.6564,-0.6547,-0.6524,-0.6508,-0.649,-0.6466,-0.6443,-0.6425,-0.6417,-0.6411,-0.642,-0.6409,-0.6386,-0.6381,-0.6377,-0.6379,-0.6419,-0.6419,-0.6435,-0.6435,-0.6436]},{"header":{"parameterUnit":"m.s-1","parameterCategory":1,"la1":30.2991,"la2":30.254,"lo1":-89.0895,"lo2":-89.0444,"dy":0.0017,"dx":0.0017,"nx":28,"ny":28,"refTime":"2025-03-21T09:00:00:Z","depth":0,"parameterNumber":3,"parameterNumberName":"V-component_of_WINDS"},"data":[0,0,0,0,0,0,0,0,0,0,0,0,0,0,0,0,0,0,0,0,0,0,0,0,0,0,0,0,0,0,0,0,0,0,0,0,0,0,0,0,0,0,0,0,0,0,0,0,0,0,0,0,0,0,0,0,0,0,3.8865,3.8865,0,3.8839,3.8838,3.8838,3.8842,3.8842,3.8842,3.8843,3.881,3.8809,3.8808,0,0,0,0,0,0,0,0,0,0,0,0,0,3.8914,3.8913,3.8865,3.8865,3.8865,3.8839,3.8838,3.8838,3.8841,3.8842,3.8843,3.8843,3.8811,3.8809,3.8808,0,0,0,0,0,0,0,0,0,0,0,0,0,3.8891,3.8913,3.8865,3.8863,3.8863,3.8839,3.8838,3.8838,3.8841,3.8842,3.8843,3.8843,3.8811,3.8809,3.8807,3.8782,0,0,3.8801,3.8801,0,0,0,0,0,0,0,0,3.8892,3.8889,3.8864,3.8863,3.8863,3.8844,3.8844,3.8819,3.8841,3.8849,3.8843,3.8844,3.8821,3.8818,3.8811,3.878,3.8779,3.8801,3.88,3.8799,3.8799,0,0,0,0,0,0,0,3.8894,3.889,3.8854,3.8864,3.8863,3.8862,3.886,3.8839,3.8831,3.8849,3.8849,3.8846,3.882,3.8813,3.8811,3.8778,3.8801,3.88,3.8798,3.8798,3.8725,3.8725,0,0,0,0,0,0,3.8897,3.8891,3.8855,3.8854,3.888,3.8861,3.8858,3.8849,3.8832,3.883,3.8845,3.8846,3.8816,3.8813,3.8809,3.8779,3.8799,3.8797,3.8796,3.8726,3.8725,3.8724,0,0,0,0,0,0,3.8898,3.8893,3.8856,3.8873,3.8868,3.8859,3.885,3.8849,3.8841,3.8829,3.8827,3.884,3.8817,3.8812,3.8789,3.8778,3.8797,3.8795,3.8727,3.8726,3.8725,3.8717,0,0,0,0,0,0,3.8899,3.8894,3.8885,3.8873,3.8867,3.8838,3.8849,3.8848,3.8839,3.8839,3.8823,3.8821,3.8817,3.8792,3.8787,3.8775,3.8793,3.8728,3.8726,3.8725,3.8718,3.8715,3.8713,0,0,0,0,0,3.8901,3.8882,3.8884,3.888,3.8856,3.8837,3.8834,3.8831,3.8838,3.8828,3.882,3.8822,3.878,3.879,3.8784,3.8771,3.8729,3.8727,3.8725,3.8719,3.8716,3.8713,0,0,0,0,0,0,3.8892,3.8881,3.8883,3.886,3.885,3.8838,3.8826,3.8827,3.8813,3.8815,3.8809,3.8806,3.8782,3.8775,3.8786,3.8746,3.8755,3.8752,3.8752,3.8749,3.8747,3.8749,3.8792,0,0,0,0,0,3.8887,3.8875,3.8865,3.8846,3.8841,3.8834,3.8826,3.8825,3.8813,3.8808,3.8798,3.8785,3.8769,3.8759,3.8743,3.8717,3.8713,3.8705,3.8703,3.8701,3.8699,3.8684,3.8681,3.8719,3.8719,3.8719,0,0,3.8877,3.887,3.8862,3.8844,3.8836,3.8821,3.883,3.8814,3.8803,3.8805,3.8783,3.8776,3.8761,3.8736,3.8725,3.8729,3.8687,3.8699,3.8698,3.8696,3.8682,3.8678,3.8675,3.8717,3.8718,3.8718,0,0,3.8853,3.8846,3.883,3.8822,3.881,3.8806,3.8802,3.879,3.8786,3.8765,3.8766,3.8751,3.8724,3.8713,3.8704,3.8677,3.8677,3.8671,3.8659,3.8645,3.8642,3.8639,3.8629,3.8626,3.8669,3.8669,3.8669,0,3.8841,3.8821,3.882,3.8805,3.8797,3.88,3.8782,3.8774,3.8757,3.8751,3.8756,3.8722,3.8712,3.8685,3.8679,3.8672,3.8666,3.8673,3.8643,3.864,3.8637,3.8628,3.8624,3.8668,3.8668,3.8668,3.8668,0,3.8808,3.8794,3.8782,3.8768,3.8758,3.8742,3.8737,3.8727,3.8727,3.8722,3.87,3.8689,3.8671,3.8665,3.8663,3.8637,3.864,3.8644,3.8653,3.8633,3.8624,3.862,3.8667,3.8668,3.8668,3.8668,0,0,3.8776,3.8763,3.8758,3.8752,3.874,3.8728,3.8711,3.8696,3.8688,3.8676,3.8661,3.8639,3.8643,3.8632,3.863,3.8618,3.8596,3.8623,3.8622,3.8618,3.8567,3.8564,3.856,3.8597,3.8596,3.8596,3.8568,0,3.875,3.8723,3.8722,3.8696,3.8683,3.8686,3.8671,3.8661,3.8656,3.8643,3.8637,3.8621,3.8627,3.8621,3.8609,3.8601,3.8586,3.8603,3.8582,3.8581,3.8586,3.8555,3.8552,3.8527,3.8565,3.8564,3.8564,0,3.8715,3.8705,3.8679,3.8669,3.8664,3.8651,3.8637,3.8625,3.8613,3.861,3.86,3.8599,3.8581,3.8591,3.8565,3.8577,3.8568,3.8563,3.8562,3.856,3.8571,3.8552,3.8519,3.8515,3.8558,3.8558,3.8559,0,3.8695,3.8674,3.8656,3.865,3.8638,3.8629,3.8624,3.8613,3.8604,3.8592,3.8586,3.857,3.8562,3.8549,3.8544,3.8552,3.8518,3.8528,3.8514,3.8515,3.8507,3.8507,3.8472,3.8502,3.8502,3.8502,3.8502,0,3.8665,3.8649,3.8646,3.8635,3.8617,3.8615,3.8597,3.8591,3.8582,3.8569,3.8569,3.8557,3.8551,3.8537,3.8532,3.8511,3.8507,3.8504,3.8503,3.8504,3.8504,3.8497,3.8499,3.8501,3.8501,3.8501,3.8501,0,3.8639,3.8636,3.8617,3.8608,3.8605,3.8592,3.8584,3.8572,3.8568,3.8551,3.8547,3.8539,3.8523,3.8517,3.8496,3.8493,3.8469,3.8469,3.8474,3.8473,3.846,3.8461,3.8419,3.8413,3.8447,3.8446,3.8446,0,3.862,3.8608,3.8599,3.8591,3.8586,3.8573,3.8564,3.8562,3.8553,3.854,3.853,3.8514,3.8501,3.8474,3.8466,3.845,3.845,3.8436,3.8447,3.8449,3.8449,3.845,3.8449,3.8434,3.8433,3.8433,3.8433,0,3.8587,3.8587,3.8576,3.8565,3.8555,3.8545,3.8536,3.8529,3.8525,3.8515,3.8499,3.8489,3.8469,3.8453,3.8437,3.843,3.843,3.843,3.8426,3.8426,3.8429,3.8427,3.8468,3.843,3.843,3.8431,3.8431,3.8431,3.8564,3.8554,3.8546,3.8534,3.8527,3.8518,3.8507,3.8503,3.849,3.8475,3.8474,3.8457,3.8446,3.8425,3.8416,3.8402,3.8405,3.84,3.8398,3.8397,3.8396,3.8432,3.8399,3.8399,3.8399,3.8399,3.8399,0,3.8532,3.8527,3.8516,3.8504,3.8494,3.8498,3.8487,3.8478,3.8464,3.8454,3.8442,3.8424,3.8409,3.84,3.8384,3.8374,3.8374,3.837,3.8371,3.8369,3.8394,3.8399,3.8371,3.8371,3.8371,3.8371,3.8371,3.8371,3.8514,3.8497,3.8495,3.8475,3.847,3.8455,3.8449,3.844,3.8433,3.8413,3.8401,3.8396,3.8387,3.837,3.8356,3.8354,3.8348,3.8343,3.8341,3.8364,3.8367,3.837,3.8375,3.8342,3.8342,3.8318,3.8317,3.8317]}]]